timestamp,wind_dir_avg,wind_spd_avg,wind_spd_max_dir,wind_spd_gust,battery_voltage,lat,long
2022-03-21 00:04:01+00:00,114.0,7.86,108.0,9.5,12.33,47.59359,-54.27349
2022-03-21 00:14:01+00:00,113.0,6.58,124.0,9.02,12.25,47.59359,-54.27349
2022-03-21 00:24:01+00:00,113.0,5.25,122.0,8.57,12.25,47.59359,-54.27349
2022-03-21 00:34:01+00:00,130.0,4.58,135.0,7.24,12.25,47.59359,-54.27349
2022-03-21 00:44:01+00:00,315.0,0.01,124.0,0.0,12.25,47.59359,-54.27349
2022-03-21 00:54:01+00:00,315.0,0.01,124.0,0.0,12.25,47.59359,-54.27349
2022-03-21 01:04:01+00:00,315.0,0.01,124.0,0.0,12.25,47.59359,-54.27349
2022-03-21 01:14:01+00:00,315.0,0.01,124.0,0.0,12.25,47.59359,-54.27349
2022-03-21 01:24:01+00:00,315.0,0.01,124.0,0.0,12.25,47.59359,-54.27349
2022-03-21 01:34:01+00:00,315.0,0.01,124.0,0.0,12.25,47.59359,-54.27349
2022-03-21 01:44:01+00:00,315.0,0.01,124.0,0.0,12.25,47.59359,-54.27349
2022-03-21 01:54:01+00:00,315.0,0.01,124.0,0.0,12.25,47.59359,-54.27349
2022-03-21 02:04:01+00:00,315.0,0.01,124.0,0.0,12.25,47.59359,-54.27349
2022-03-21 02:14:00+00:00,315.0,0.01,124.0,0.0,12.25,47.59359,-54.27349
2022-03-21 02:24:00+00:00,315.0,0.01,124.0,0.0,12.25,47.59359,-54.27349
2022-03-21 02:34:00+00:00,315.0,0.01,124.0,0.0,12.25,47.59359,-54.27349
2022-03-21 02:44:00+00:00,315.0,0.01,124.0,0.0,12.25,47.59359,-54.27349
2022-03-21 02:54:00+00:00,315.0,0.01,124.0,0.0,12.25,47.59359,-54.27349
2022-03-21 03:04:00+00:00,315.0,0.01,124.0,0.0,12.25,47.59359,-54.27349
2022-03-21 03:14:00+00:00,315.0,0.01,124.0,0.0,12.17,47.59359,-54.27349
2022-03-21 03:24:00+00:00,315.0,0.01,124.0,0.0,12.17,47.59359,-54.27349
2022-03-21 03:34:00+00:00,315.0,0.01,124.0,0.0,12.17,47.59359,-54.27349
2022-03-21 03:44:00+00:00,315.0,0.01,124.0,0.0,12.17,47.59359,-54.27349
2022-03-21 03:54:00+00:00,315.0,0.01,124.0,0.0,12.17,47.59359,-54.27349
2022-03-21 04:04:00+00:00,315.0,0.01,124.0,0.0,12.17,47.59359,-54.27349
2022-03-21 04:14:01+00:00,315.0,0.01,124.0,0.0,12.17,47.59359,-54.27349
2022-03-21 04:24:01+00:00,315.0,0.01,124.0,0.0,12.17,47.59359,-54.27349
2022-03-21 04:34:01+00:00,315.0,0.01,124.0,0.0,12.17,47.59359,-54.27349
2022-03-21 04:44:01+00:00,315.0,0.01,124.0,0.0,12.17,47.59359,-54.27349
2022-03-21 04:54:01+00:00,315.0,0.01,124.0,0.0,12.17,47.59359,-54.27349
2022-03-21 05:04:01+00:00,315.0,0.01,124.0,0.0,12.17,47.59359,-54.27349
2022-03-21 05:14:00+00:00,315.0,0.01,124.0,0.0,12.17,47.59359,-54.27349
2022-03-21 05:24:00+00:00,315.0,0.01,124.0,0.0,12.17,47.59359,-54.27349
2022-03-21 05:34:00+00:00,315.0,0.01,124.0,0.0,12.17,47.59359,-54.27349
2022-03-21 05:44:00+00:00,315.0,0.01,124.0,0.0,12.17,47.59359,-54.27349
2022-03-21 05:54:00+00:00,315.0,0.01,124.0,0.0,12.17,47.59359,-54.27349
2022-03-21 06:04:00+00:00,315.0,0.01,124.0,0.0,12.17,47.59359,-54.27349
2022-03-21 06:14:01+00:00,315.0,0.01,124.0,0.0,12.17,47.59359,-54.27349
2022-03-21 06:24:01+00:00,315.0,0.01,124.0,0.0,12.17,47.59359,-54.27349
2022-03-21 06:34:01+00:00,315.0,0.01,124.0,0.0,12.17,47.59359,-54.27349
2022-03-21 06:44:01+00:00,315.0,0.01,124.0,0.0,12.17,47.59359,-54.27349
2022-03-21 06:54:01+00:00,315.0,0.01,124.0,0.0,12.17,47.59359,-54.27349
2022-03-21 07:04:01+00:00,315.0,0.01,124.0,0.0,12.17,47.59359,-54.27349
2022-03-21 07:14:01+00:00,315.0,0.01,124.0,0.0,12.17,47.59359,-54.27349
2022-03-21 07:24:01+00:00,315.0,0.01,124.0,0.0,12.17,47.59359,-54.27349
2022-03-21 07:34:01+00:00,315.0,0.01,124.0,0.0,12.17,47.59359,-54.27349
2022-03-21 07:44:01+00:00,315.0,0.01,124.0,0.0,12.17,47.59359,-54.27349
2022-03-21 07:54:01+00:00,315.0,0.01,124.0,0.0,12.17,47.59359,-54.27349
2022-03-21 08:04:01+00:00,315.0,0.01,124.0,0.0,12.17,47.59359,-54.27349
2022-03-21 08:14:00+00:00,103.0,7.29,113.0,8.72,12.17,47.59359,-54.27349
2022-03-21 08:24:00+00:00,87.0,5.79,90.0,8.45,12.17,47.59359,-54.27349
2022-03-21 08:34:00+00:00,84.0,6.23,86.0,10.38,12.17,47.59359,-54.27349
2022-03-21 08:44:00+00:00,87.0,6.61,97.0,9.52,12.17,47.59359,-54.27349
2022-03-21 08:54:00+00:00,315.0,0.01,91.0,0.0,12.17,47.59359,-54.27349
2022-03-21 09:04:00+00:00,315.0,0.01,91.0,0.0,12.17,47.59359,-54.27349
2022-03-21 09:14:00+00:00,315.0,0.01,91.0,0.0,12.09,47.59359,-54.27349
2022-03-21 09:24:00+00:00,78.0,6.28,80.0,8.91,12.09,47.59359,-54.27349
2022-03-21 09:34:00+00:00,79.0,8.19,83.0,9.51,12.09,47.59359,-54.27349
2022-03-21 09:44:00+00:00,79.0,7.67,78.0,9.82,12.09,47.59359,-54.27349
2022-03-21 09:54:00+00:00,79.0,4.38,80.0,9.11,12.09,47.59359,-54.27349
2022-03-21 10:04:00+00:00,71.0,3.8,71.0,9.1,12.09,47.59359,-54.27349
2022-03-21 10:14:01+00:00,74.0,3.99,91.0,9.07,12.17,47.59359,-54.27349
2022-03-21 10:24:01+00:00,72.0,7.72,75.0,10.29,12.17,47.59359,-54.27349
2022-03-21 10:34:01+00:00,56.0,4.73,64.0,5.62,12.17,47.59359,-54.27349
2022-03-21 10:44:01+00:00,60.0,8.37,63.0,10.36,12.17,47.59359,-54.27349
2022-03-21 10:54:01+00:00,66.0,9.62,63.0,10.85,12.17,47.59359,-54.27349
2022-03-21 11:04:01+00:00,68.0,8.54,61.0,11.03,12.17,47.59359,-54.27349
2022-03-21 11:14:00+00:00,66.0,10.41,69.0,11.15,12.17,47.59359,-54.27349
2022-03-21 11:24:00+00:00,67.0,10.34,65.0,11.15,12.17,47.59359,-54.27349
2022-03-21 11:34:00+00:00,63.0,10.94,68.0,13.74,12.17,47.59359,-54.27349
2022-03-21 11:44:00+00:00,62.0,8.36,62.0,10.23,12.17,47.59359,-54.27349
2022-03-21 11:54:00+00:00,67.0,8.69,71.0,10.31,12.17,47.59359,-54.27349
2022-03-21 12:04:00+00:00,64.0,7.36,71.0,9.92,12.17,47.59359,-54.27349
2022-03-21 12:14:01+00:00,71.0,9.62,72.0,10.82,12.17,47.59359,-54.27349
2022-03-21 12:24:01+00:00,72.0,8.74,75.0,10.57,12.17,47.59359,-54.27349
2022-03-21 12:34:01+00:00,72.0,8.99,74.0,10.76,12.17,47.59359,-54.27349
2022-03-21 12:44:01+00:00,70.0,9.97,69.0,10.7,12.17,47.59359,-54.27349
2022-03-21 12:54:01+00:00,57.0,5.12,70.0,8.74,12.17,47.59359,-54.27349
2022-03-21 13:04:01+00:00,67.0,8.63,69.0,10.04,12.17,47.59359,-54.27349
2022-03-21 13:14:01+00:00,62.0,6.36,70.0,9.2,12.65,47.59359,-54.27349
2022-03-21 13:24:01+00:00,58.0,5.94,72.0,9.2,12.65,47.59359,-54.27349
2022-03-21 13:34:01+00:00,50.0,4.91,50.0,5.57,12.65,47.59359,-54.27349
2022-03-21 13:44:01+00:00,57.0,5.5,69.0,8.64,12.65,47.59359,-54.27349
2022-03-21 13:54:01+00:00,59.0,4.69,72.0,7.69,12.65,47.59359,-54.27349
2022-03-21 14:04:01+00:00,51.0,5.18,63.0,6.77,12.65,47.59359,-54.27349
2022-03-21 14:14:01+00:00,60.0,6.92,67.0,9.33,13.37,47.59359,-54.27349
2022-03-21 14:24:01+00:00,60.0,7.78,62.0,9.78,13.37,47.59359,-54.27349
2022-03-21 14:34:01+00:00,60.0,9.19,62.0,10.49,13.37,47.59359,-54.27349
2022-03-21 14:44:01+00:00,59.0,9.69,61.0,11.04,13.37,47.59359,-54.27349
2022-03-21 14:54:01+00:00,61.0,10.04,67.0,12.29,13.37,47.59359,-54.27349
2022-03-21 15:04:01+00:00,62.0,9.66,62.0,10.7,13.37,47.59359,-54.27349
2022-03-21 15:14:00+00:00,58.0,8.89,60.0,10.41,13.68,47.59359,-54.27349
2022-03-21 15:24:00+00:00,45.0,5.97,58.0,8.86,13.68,47.59359,-54.27349
2022-03-21 15:34:00+00:00,58.0,9.79,59.0,10.9,13.68,47.59359,-54.27349
2022-03-21 15:44:00+00:00,62.0,10.09,62.0,11.36,13.68,47.59359,-54.27349
2022-03-21 15:54:00+00:00,65.0,9.8,64.0,10.81,13.68,47.59359,-54.27349
2022-03-21 16:04:00+00:00,62.0,10.22,60.0,10.83,13.68,47.59359,-54.27349
2022-03-21 16:14:01+00:00,41.0,6.19,54.0,8.46,13.68,47.59359,-54.27349
2022-03-21 16:24:01+00:00,59.0,9.62,60.0,11.16,13.68,47.59359,-54.27349
2022-03-21 16:34:01+00:00,57.0,8.49,62.0,10.16,13.68,47.59359,-54.27349
2022-03-21 16:44:01+00:00,61.0,8.88,62.0,10.4,13.68,47.59359,-54.27349
2022-03-21 16:54:01+00:00,53.0,5.76,68.0,9.07,13.68,47.59359,-54.27349
2022-03-21 17:04:01+00:00,57.0,6.49,68.0,9.7,13.68,47.59359,-54.27349
2022-03-21 17:14:00+00:00,57.0,6.79,63.0,9.9,13.68,47.59359,-54.27349
2022-03-21 17:24:00+00:00,56.0,6.66,63.0,10.18,13.68,47.59359,-54.27349
2022-03-21 17:34:00+00:00,62.0,8.53,65.0,10.04,13.68,47.59359,-54.27349
2022-03-21 17:44:00+00:00,60.0,8.77,63.0,10.55,13.68,47.59359,-54.27349
2022-03-21 17:54:00+00:00,59.0,7.88,61.0,9.82,13.68,47.59359,-54.27349
2022-03-21 18:04:00+00:00,47.0,5.56,50.0,6.69,13.68,47.59359,-54.27349
2022-03-21 19:14:01+00:00,358.0,3.45,359.0,3.7,13.29,47.59359,-54.27349
2022-03-21 19:24:01+00:00,44.0,4.17,52.0,5.1,13.29,47.59359,-54.27349
2022-03-21 19:34:01+00:00,315.0,0.01,35.0,0.0,13.29,47.59359,-54.27349
2022-03-21 19:44:01+00:00,354.0,4.4,357.0,4.8,13.29,47.59359,-54.27349
2022-03-21 19:54:01+00:00,15.0,3.02,13.0,3.3,13.29,47.59359,-54.27349
2022-03-21 20:04:01+00:00,334.0,3.6,332.0,4.04,13.29,47.59359,-54.27349
2022-03-21 20:14:01+00:00,220.0,0.57,192.0,0.83,13.13,47.59359,-54.27349
2022-03-21 20:24:01+00:00,226.0,1.4,232.0,2.08,13.13,47.59359,-54.27349
2022-03-21 20:34:01+00:00,227.0,1.43,222.0,2.0,13.13,47.59359,-54.27349
2022-03-21 20:44:01+00:00,242.0,1.25,251.0,1.65,13.13,47.59359,-54.27349
2022-03-21 20:54:01+00:00,246.0,2.71,242.0,3.15,13.13,47.59359,-54.27349
2022-03-21 21:04:01+00:00,227.0,2.66,236.0,3.25,13.13,47.59359,-54.27349
2022-03-21 21:14:01+00:00,186.0,2.28,187.0,2.67,12.73,47.59359,-54.27349
2022-03-21 21:24:01+00:00,196.0,2.09,197.0,2.21,12.73,47.59359,-54.27349
2022-03-21 21:34:01+00:00,260.0,0.41,244.0,0.59,12.73,47.59359,-54.27349
2022-03-21 21:44:01+00:00,146.0,1.36,132.0,1.81,12.73,47.59359,-54.27349
2022-03-21 21:54:01+00:00,140.0,1.63,138.0,2.12,12.73,47.59359,-54.27349
2022-03-21 22:04:01+00:00,67.0,1.14,71.0,1.38,12.73,47.59359,-54.27349
2022-03-21 22:14:01+00:00,205.0,1.67,197.0,2.11,12.49,47.59359,-54.27349
2022-03-21 22:24:01+00:00,268.0,3.82,267.0,4.79,12.49,47.59359,-54.27349
2022-03-21 22:34:01+00:00,265.0,8.06,265.0,9.5,12.49,47.59359,-54.27349
2022-03-21 22:44:01+00:00,260.0,8.32,263.0,9.4,12.49,47.59359,-54.27349
2022-03-21 22:54:01+00:00,246.0,6.81,250.0,9.45,12.49,47.59359,-54.27349
2022-03-21 23:04:01+00:00,234.0,5.21,257.0,9.32,12.49,47.59359,-54.27349
2022-03-21 23:14:01+00:00,227.0,5.22,227.0,6.01,12.41,47.59359,-54.27349
2022-03-21 23:24:01+00:00,251.0,5.52,257.0,7.34,12.41,47.59359,-54.27349
2022-03-21 23:34:01+00:00,273.0,7.05,274.0,7.75,12.41,47.59359,-54.27349
2022-03-21 23:44:01+00:00,251.0,7.26,258.0,8.41,12.41,47.59359,-54.27349
2022-03-21 23:54:01+00:00,251.0,6.87,253.0,7.78,12.41,47.59359,-54.27349
